Theta_e
346 347 349 348 347 346 349 347 345 347 348 345 344 343 338 338 332 331 331 333 332 336 335 334 343 345 347 348 347 347 349 346 350 348 347 346 349 345 340 341 340 341 341 341 341 341 342 341 341 342 343 343 342 342 342 342 341 342 342 342 343 343 343 344 344 343 343 343 343 343 343 343 344 344
348 348 349 349 346 348 349 347 345 348 349 345 344 343 343 342 337 334 331 333 337 335 339 335 337 348 348 349 348 347 348 351 350 348 349 345 346 339 339 340 340 339 339 338 338 339 340 340 340 339 338 338 338 339 340 340 341 340 340 341 341 342 342 342 342 342 342 342 343 343 343 343 343 343
349 348 348 351 349 350 350 348 345 347 349 346 345 343 344 344 342 339 337 331 337 340 336 339 339 341 348 344 344 346 348 352 347 348 349 349 346 340 344 338 339 338 337 336 336 335 335 335 336 335 336 336 337 338 339 339 339 339 339 339 339 340 340 340 340 340 340 340 340 341 341 341 342 342
350 349 349 351 351 350 350 349 347 347 350 348 344 344 344 344 345 343 338 336 336 342 337 339 344 343 345 349 345 347 347 349 348 350 348 352 346 345 346 340 337 336 336 335 335 333 332 333 334 335 336 336 337 338 338 338 338 338 338 338 337 337 338 337 337 337 337 337 338 338 338 339 340 340
350 351 349 350 351 352 350 349 348 346 348 348 345 346 344 343 345 343 341 337 338 341 344 341 340 344 345 345 348 346 347 348 345 348 350 351 346 344 343 347 338 337 335 334 333 333 332 332 333 333 334 335 337 337 338 338 337 336 335 334 333 332 333 333 333 333 334 335 335 336 336 337 338 338
351 352 351 348 350 352 351 350 348 346 344 347 344 344 344 343 343 345 341 339 337 337 344 343 345 341 345 340 348 345 344 346 348 345 346 348 348 345 344 343 347 336 336 332 331 331 331 331 332 332 333 333 335 335 336 335 331 330 330 329 329 329 328 328 329 331 332 332 333 334 335 335 336 337
354 352 351 348 349 349 350 350 349 347 346 346 345 344 345 344 343 346 346 341 338 338 338 344 343 343 345 341 343 347 345 346 347 347 346 345 345 344 345 344 345 336 335 332 331 331 330 331 331 331 332 332 332 331 329 327 326 326 325 325 326 327 326 326 327 329 330 330 331 332 332 333 333 334
354 352 351 349 347 349 349 350 348 347 348 347 346 345 346 347 345 345 348 345 341 340 339 343 343 343 343 344 343 345 346 343 344 345 345 345 344 345 346 345 344 340 333 332 331 331 330 330 329 328 328 329 327 325 324 323 324 324 323 323 323 323 323 323 323 326 326 326 327 328 329 330 331 330
356 354 352 350 349 349 349 349 347 348 348 348 347 346 346 346 346 345 346 348 345 341 339 340 345 346 344 345 345 345 343 343 343 345 343 343 345 345 344 345 345 338 329 333 331 330 330 330 329 328 328 327 326 324 324 323 323 323 322 321 321 322 322 322 320 321 322 322 323 322 324 325 327 328
357 355 354 352 351 349 349 348 348 349 349 349 348 347 347 346 347 346 345 347 346 344 340 340 339 345 342 343 344 346 346 341 341 343 345 345 345 345 344 341 343 346 345 345 341 333 330 329 327 328 328 327 326 325 324 323 322 320 319 316 316 318 318 318 320 320 319 319 320 322 323 324 325 326
358 356 355 354 353 352 351 350 349 350 350 349 350 349 349 347 347 346 345 345 345 344 342 341 341 340 343 344 341 344 347 346 342 339 342 342 345 346 344 341 344 345 342 340 336 337 336 332 334 324 323 326 325 325 324 323 321 320 318 315 314 315 315 315 317 318 317 318 318 318 317 318 321 323
358 358 356 354 354 353 354 353 352 352 351 352 351 350 350 349 346 345 344 344 343 343 341 339 338 340 340 342 343 343 345 343 342 342 340 337 338 341 346 345 343 345 344 339 339 336 334 332 330 323 324 326 326 325 325 324 325 323 320 318 319 319 317 317 317 317 316 316 315 315 315 315 317 318
359 359 358 357 355 356 351 347 349 347 347 353 351 352 351 350 348 347 345 343 343 342 341 340 341 339 339 340 340 339 339 338 338 340 341 339 339 339 342 346 347 344 339 339 338 340 342 340 342 342 342 341 335 332 328 331 331 326 320 318 320 321 320 318 317 317 317 316 315 314 314 315 315 317
360 359 358 357 349 346 344 343 342 340 340 343 350 354 353 351 349 347 345 343 342 342 340 339 339 338 337 338 341 339 340 341 342 340 340 338 339 341 340 341 343 348 342 337 338 342 344 341 342 341 340 340 339 338 336 332 330 327 323 322 321 320 320 318 317 316 316 315 314 314 313 313 315 315
359 360 359 359 354 349 345 349 338 338 337 338 339 344 350 350 352 349 345 343 344 341 340 340 340 338 339 340 341 340 339 339 339 340 341 340 340 337 336 333 337 347 343 342 340 338 342 342 338 340 339 336 336 334 333 327 327 322 322 321 321 320 320 320 319 318 316 314 313 313 312 313 313 314
360 359 358 358 358 356 354 353 352 343 336 335 335 336 338 343 344 344 349 345 343 342 340 340 340 340 340 341 342 339 338 339 340 341 340 341 341 338 337 336 335 343 343 341 339 337 342 341 339 338 336 334 334 332 327 322 322 321 320 320 320 320 319 319 319 318 317 316 316 316 316 316 316 315
361 360 359 358 358 358 344 347 352 352 349 333 330 333 334 336 335 333 333 337 350 346 341 340 339 340 341 341 342 342 342 344 340 341 338 339 339 340 337 338 336 340 348 341 337 332 335 338 335 333 334 333 334 330 326 323 322 321 320 319 319 319 318 317 317 316 316 315 315 314 314 314 314 314
361 361 360 358 357 358 355 353 352 354 354 350 345 343 344 345 342 333 330 330 332 341 345 343 341 344 346 343 344 345 346 344 342 340 338 340 339 339 338 339 337 340 344 339 333 329 331 334 332 330 332 332 332 332 328 319 321 319 318 317 316 315 315 315 315 315 315 314 314 313 312 311 311 311
361 362 361 360 358 358 358 356 352 354 355 355 352 347 345 345 346 346 343 342 342 343 341 342 345 347 347 347 347 348 349 347 345 343 342 341 340 340 341 343 344 341 342 339 334 325 326 330 328 329 329 329 329 329 323 319 320 318 317 316 316 315 314 314 314 314 313 313 313 312 311 310 309 308
361 361 361 361 359 359 359 347 335 344 355 356 354 351 350 348 348 348 347 337 339 345 345 345 344 344 348 340 348 348 348 348 346 344 343 342 339 337 335 334 332 334 335 337 332 327 326 330 325 326 328 327 325 326 325 322 318 318 316 316 315 314 312 312 312 312 313 313 312 312 310 308 307 306
359 359 359 361 360 359 360 342 328 332 342 355 351 350 350 349 348 348 352 333 332 331 327 324 325 324 324 327 327 327 331 341 341 341 336 335 337 333 328 330 330 328 329 334 333 325 324 327 326 323 324 325 323 321 322 327 319 315 316 314 313 312 312 311 311 312 312 312 312 312 312 309 308 308
358 357 347 353 359 359 361 329 325 327 342 353 351 351 349 347 347 347 348 346 341 324 325 325 325 325 326 328 327 327 327 327 336 339 334 335 335 331 329 326 327 326 328 328 329 326 321 323 324 322 323 322 322 320 322 322 322 318 313 311 312 312 312 312 311 312 312 312 312 311 309 308 307 320
355 357 350 341 347 353 352 321 323 324 336 351 351 351 349 346 346 346 348 346 344 343 343 342 341 340 334 341 342 340 326 330 338 339 339 336 333 329 327 326 326 324 326 328 330 322 322 322 322 321 318 315 317 320 320 321 323 323 323 323 326 314 312 313 311 310 310 310 310 311 309 307 308 322
356 355 358 346 329 331 326 318 318 319 325 348 351 351 348 347 346 348 347 346 344 342 341 343 342 342 342 341 342 342 338 336 338 339 339 337 333 330 327 326 326 324 323 328 328 323 321 322 319 322 317 313 311 316 319 321 321 321 321 322 320 318 317 316 314 311 308 310 309 309 309 308 309 324
354 354 354 356 331 323 319 316 314 315 319 331 350 351 350 350 349 344 346 345 343 343 341 342 340 341 340 339 338 338 338 337 337 337 337 334 333 331 327 325 323 323 324 326 325 325 320 320 319 319 317 316 313 313 317 317 319 318 321 321 318 319 321 320 317 321 312 308 307 307 307 309 308 318
354 354 355 356 336 320 317 314 312 313 316 322 350 349 331 327 328 349 347 344 342 340 340 339 337 337 337 336 336 336 336 334 334 333 333 333 331 330 329 327 325 322 323 327 320 323 320 319 318 315 315 313 313 313 312 314 316 318 319 319 319 319 319 318 318 320 323 325 325 323 321 312 311 309
355 356 358 355 327 318 314 311 311 312 315 319 339 324 316 319 326 339 344 343 340 339 338 337 335 335 334 334 333 333 332 332 334 333 333 332 331 331 328 328 327 325 326 329 329 326 323 319 320 317 315 315 313 313 313 311 312 317 316 316 318 318 318 318 318 319 321 322 323 313 310 310 311 312
357 357 357 351 318 313 309 309 311 313 315 329 320 311 318 321 329 343 341 340 339 338 335 334 334 333 333 333 332 331 333 333 336 333 332 332 329 330 329 329 327 327 328 326 326 325 325 322 319 320 319 315 312 310 309 312 313 314 313 315 315 316 318 318 319 321 321 322 321 321 320 321 323 326
357 340 331 321 311 312 310 310 311 313 314 317 314 313 318 328 342 341 340 338 336 334 333 332 333 332 334 334 334 336 335 335 334 332 330 330 330 330 331 331 330 329 326 323 324 324 324 322 320 319 318 317 312 312 311 311 312 313 314 313 312 315 316 319 321 320 320 319 320 320 320 320 320 321
332 327 320 314 314 312 316 322 328 330 327 317 316 316 324 339 339 339 338 338 335 333 332 332 331 332 332 332 335 336 335 332 329 329 327 327 326 328 327 327 327 328 326 325 322 321 322 322 320 320 317 316 314 312 313 311 312 312 313 312 313 317 319 320 319 319 319 318 318 318 320 320 319 319
348 333 327 328 320 321 318 324 323 324 320 322 324 330 336 339 339 338 339 336 335 335 332 332 331 332 332 334 334 332 331 330 329 329 327 325 325 327 325 324 324 323 324 325 322 321 321 321 321 320 316 315 314 314 315 313 311 311 312 313 313 311 316 319 320 318 318 318 319 318 320 319 319 320
353 339 321 318 327 325 326 328 329 328 328 329 330 334 336 337 337 337 335 335 337 337 335 333 333 333 334 331 330 329 329 325 326 328 327 326 326 323 325 322 321 321 322 322 322 322 320 321 321 321 319 317 315 316 316 314 312 311 311 313 314 316 318 316 316 317 319 318 316 316 318 318 318 319
346 334 330 329 326 325 326 326 326 327 329 331 333 335 336 336 336 336 334 333 334 334 333 332 333 330 329 329 328 326 323 325 327 330 329 329 327 327 324 320 319 319 318 318 320 320 322 321 322 321 321 321 318 316 312 310 312 312 311 312 315 315 316 318 318 317 319 317 315 315 314 316 318 318
336 330 328 327 325 326 326 325 326 327 330 330 332 334 329 334 333 334 334 334 333 334 332 333 329 328 328 327 324 323 323 325 327 328 324 328 327 325 321 319 319 320 318 317 317 318 318 320 320 320 321 321 320 321 320 316 313 313 314 314 313 313 315 317 317 318 318 315 314 312 313 314 317 317
333 327 325 325 326 327 327 326 327 328 329 329 330 332 333 333 331 329 331 332 331 330 331 330 328 328 326 323 323 323 324 325 325 326 326 326 327 324 321 318 318 318 317 316 317 317 316 316 316 314 314 314 315 319 322 322 316 315 316 314 314 313 314 316 315 317 317 316 315 314 314 314 314 316
329 327 325 325 326 327 327 327 327 328 328 328 330 331 330 330 330 329 330 329 332 331 330 329 326 326 323 323 324 324 324 323 323 325 323 322 322 321 319 319 318 318 318 316 315 316 315 314 311 310 308 308 308 307 310 322 321 317 313 313 314 314 314 316 317 317 316 315 315 313 311 310 312 314
328 329 328 328 327 327 328 328 328 328 328 329 329 329 329 329 329 330 331 329 330 329 329 329 325 324 322 323 323 322 322 323 323 322 321 320 320 319 318 318 317 317 315 315 315 314 315 312 312 310 308 306 305 306 307 324 317 320 320 312 313 313 314 315 316 315 315 315 313 311 310 310 310 312
328 329 329 329 328 329 329 329 328 328 329 329 328 328 329 330 330 331 333 332 329 328 327 326 324 324 323 323 323 323 323 323 321 320 319 319 318 317 318 318 317 316 315 315 316 314 313 311 310 310 310 307 306 305 306 311 312 313 316 319 312 312 314 316 314 313 313 314 313 312 311 309 310 312
330 329 329 329 329 329 328 328 328 328 329 329 328 328 328 329 328 329 331 331 330 328 328 325 324 324 324 323 324 324 322 321 319 319 318 317 319 318 318 317 316 315 314 313 313 312 312 311 312 311 310 308 307 308 308 307 307 311 311 311 316 315 315 315 313 312 312 311 312 314 313 314 312 312
330 330 330 330 329 329 328 328 328 329 329 328 329 329 330 328 327 329 329 329 330 329 327 324 324 321 325 324 323 324 323 322 321 319 319 318 318 318 317 318 315 314 314 311 310 309 310 310 312 312 312 312 312 311 310 309 310 312 316 318 307 314 318 315 313 312 311 312 313 311 310 310 309 312
329 329 329 329 328 328 327 328 328 328 328 328 328 325 330 329 328 328 328 328 329 328 326 325 326 326 324 325 325 323 322 320 320 320 319 319 318 318 315 312 313 313 311 310 309 309 309 312 317 311 313 313 313 314 311 310 310 312 311 313 307 305 308 315 318 314 312 314 312 310 307 307 307 309
328 327 327 328 327 327 327 327 326 327 327 327 328 328 329 328 328 324 327 327 328 329 327 325 327 327 326 325 324 322 322 320 320 319 320 318 317 315 311 312 310 310 309 308 309 310 313 316 314 315 316 315 314 311 308 308 309 309 312 312 315 309 306 306 309 313 319 315 310 307 306 308 308 306
326 326 325 325 326 326 326 326 327 327 328 328 328 329 329 328 327 326 327 327 328 326 326 327 328 327 326 325 325 323 321 320 320 319 318 317 315 313 311 310 310 311 311 311 311 311 312 314 315 313 313 312 311 311 307 308 309 309 310 310 311 314 316 312 307 307 309 311 311 311 311 308 306 302
325 325 325 326 325 326 326 326 327 327 328 329 329 329 327 325 325 326 327 328 327 326 326 327 327 326 325 323 322 322 320 319 319 319 317 315 315 314 313 314 312 312 311 311 310 310 311 311 313 311 310 309 311 310 308 309 309 309 310 311 314 316 313 315 317 312 311 312 310 308 309 309 309 309
325 325 325 326 326 326 326 327 326 327 328 327 327 327 326 326 325 326 327 327 327 326 326 325 324 324 323 321 321 318 319 315 316 317 316 316 313 313 313 312 312 311 310 310 309 310 310 311 311 312 310 310 311 310 309 309 310 310 311 312 312 312 312 312 310 308 308 309 308 307 308 309 309 309
Wind_Speed
10 9 10 7 6 5 5 5 5 4 4 4 4 4 5 5 5 3 4 4 4 5 7 6 7 5 4 5 5 6 6 5 7 6 7 7 7 10 10 9 8 8 7 6 6 7 7 7 7 8 9 8 8 8 7 8 8 8 8 8 8 8 8 8 8 9 10 11 11 11 12 13 13 13
8 9 9 8 7 7 6 7 7 6 6 6 6 5 6 5 6 5 4 3 4 3 4 5 3 6 4 4 4 5 7 8 6 6 7 6 6 13 10 9 8 7 6 7 8 8 7 7 6 6 6 6 5 5 6 6 6 7 7 8 8 8 8 8 8 9 10 10 11 11 12 13 13 13
9 9 9 8 8 7 8 7 7 7 7 7 6 6 6 6 7 6 5 5 4 4 4 4 3 4 5 4 4 4 5 7 7 7 6 6 9 11 8 9 8 9 9 9 9 9 8 6 6 6 6 7 6 6 7 6 6 7 7 7 8 8 9 9 8 9 9 10 11 11 12 13 13 13
9 10 10 9 8 8 7 7 7 7 8 7 7 7 7 7 7 6 7 7 5 5 5 4 4 5 4 4 4 5 4 5 7 7 7 6 10 7 7 12 12 10 10 11 10 9 7 7 7 7 8 7 7 7 7 7 7 8 8 8 8 8 8 8 8 9 9 10 10 11 12 13 13 13
10 10 11 10 10 9 9 8 7 8 8 8 8 7 7 7 7 8 7 8 7 6 5 4 5 3 3 5 5 6 6 6 6 7 6 6 7 7 8 8 14 13 12 11 10 9 8 8 9 9 9 8 9 9 8 8 7 8 8 7 8 7 7 7 7 8 9 10 11 11 12 12 12 13
9 10 11 11 11 10 10 9 9 8 8 9 9 9 8 8 8 8 8 8 7 7 5 5 5 5 5 6 6 6 7 7 7 8 7 6 8 7 6 7 9 16 13 11 10 9 10 10 11 10 10 10 10 9 8 7 6 7 7 8 8 8 8 8 7 8 9 10 11 11 12 12 12 13
11 11 11 12 11 9 11 11 9 9 9 8 9 9 8 9 9 8 9 8 8 8 7 6 6 6 6 6 6 7 7 6 6 7 8 8 7 7 7 6 3 15 11 11 10 11 11 11 10 10 9 9 9 7 6 5 6 6 7 8 8 8 8 9 8 9 9 9 10 10 11 11 12 12
12 12 12 12 12 11 11 11 10 9 9 9 8 9 9 8 9 8 8 9 8 7 7 6 6 5 6 6 6 5 6 7 7 7 7 8 7 7 7 6 5 9 11 10 10 11 11 9 8 7 7 7 8 7 6 6 6 7 8 8 9 9 9 9 9 9 9 9 9 10 11 11 11 11
13 13 13 12 12 12 12 11 11 10 11 10 9 9 9 8 8 8 8 8 9 8 8 6 6 6 5 5 5 6 6 7 7 7 8 8 8 8 7 6 3 10 9 9 10 10 10 9 8 8 9 9 8 7 8 7 8 9 10 10 10 10 9 8 8 8 8 9 9 10 10 11 11 11
13 13 13 13 13 13 13 12 12 11 12 11 10 10 9 9 8 9 9 8 8 9 8 8 7 6 7 6 6 7 7 7 7 7 8 8 8 7 8 7 6 6 5 6 7 8 8 11 10 10 10 10 9 9 10 10 11 12 12 11 10 9 9 8 8 8 8 8 9 9 9 9 10 11
14 14 13 13 14 14 14 14 13 12 12 11 12 11 10 9 9 9 9 9 9 9 9 9 8 7 7 7 7 7 7 8 7 8 8 8 8 7 8 7 6 5 5 4 5 6 5 1 9 12 12 10 12 11 11 12 13 12 11 10 9 9 8 8 8 9 10 10 9 9 9 9 9 10
14 15 15 14 15 15 14 14 13 12 12 10 11 10 10 10 10 10 9 9 9 9 9 9 8 8 8 7 7 6 6 7 7 8 8 9 8 8 7 8 7 6 5 7 5 7 7 8 8 6 9 12 12 13 12 14 15 14 10 8 8 8 8 8 9 10 10 11 11 11 11 11 10 9
14 14 14 14 15 15 15 16 13 13 11 10 10 10 10 11 10 10 9 9 9 9 9 9 8 8 8 8 8 8 8 9 9 7 8 8 8 7 7 6 6 6 7 6 5 5 5 4 4 5 6 7 12 13 16 12 16 12 6 7 7 8 8 9 9 10 11 11 12 12 12 13 12 11
14 15 14 14 16 14 16 15 15 13 13 13 11 9 10 11 10 10 10 9 9 9 10 10 9 10 10 9 9 9 9 8 8 8 8 8 7 7 7 6 5 5 5 5 5 4 4 4 4 5 6 6 6 6 7 2 9 8 6 7 8 8 9 9 10 10 11 12 12 13 13 13 13 13
14 13 14 13 13 13 12 15 16 15 14 14 14 10 8 10 11 11 11 10 10 10 10 9 10 10 10 10 9 9 8 8 8 8 7 8 7 8 8 7 4 6 5 4 5 5 4 4 6 5 6 7 8 8 0 9 7 4 5 7 8 9 9 9 10 11 11 12 12 13 12 12 13 13
13 13 13 13 11 12 15 14 14 15 16 15 14 14 11 9 11 10 10 11 11 11 11 10 10 10 10 9 8 9 8 7 7 7 7 7 7 8 8 7 6 2 4 4 5 6 5 5 6 6 7 7 6 5 5 8 8 5 6 7 8 8 9 9 10 11 11 11 11 12 12 12 12 12
13 12 12 12 11 10 15 14 14 13 14 15 16 15 14 12 10 10 11 9 9 10 11 12 11 11 9 9 9 8 7 5 7 6 6 7 8 7 8 6 3 1 4 4 5 7 5 5 7 8 6 5 5 3 9 8 7 7 7 6 7 8 9 10 11 11 11 11 11 11 11 11 11 12
14 13 12 12 12 11 12 13 14 13 12 13 13 12 12 12 14 14 13 14 13 11 10 11 11 10 10 9 8 7 5 7 7 6 7 6 7 8 7 6 7 7 5 6 5 7 6 5 6 7 6 5 4 6 8 11 8 4 6 8 7 8 9 10 11 11 11 11 11 11 12 12 11 11
14 14 13 13 13 13 13 12 15 13 13 11 11 13 14 14 13 14 15 15 13 12 13 13 12 10 9 9 8 6 5 7 6 6 7 6 6 5 6 7 6 7 7 5 3 6 7 7 8 7 6 5 5 6 8 11 9 8 7 8 8 9 10 11 11 11 11 11 12 12 12 12 12 12
14 15 14 14 14 13 14 14 18 15 12 12 12 12 12 12 12 12 12 13 12 12 12 12 13 12 6 1 5 5 6 5 4 2 3 5 6 7 7 8 8 7 6 8 5 4 6 5 6 6 5 5 6 5 8 10 12 10 9 8 10 11 11 12 11 11 11 12 12 13 12 12 13 13
14 15 17 16 14 14 14 15 20 18 15 12 14 14 13 12 11 12 8 8 8 6 7 9 10 10 10 8 9 7 3 4 4 5 6 8 7 6 9 6 6 6 5 11 8 6 5 4 5 6 4 6 7 7 6 4 12 11 10 11 12 13 12 12 13 13 12 12 12 12 13 13 12 12
14 17 18 18 17 15 14 18 21 20 16 14 14 13 12 12 11 11 9 7 6 7 7 6 5 7 8 8 8 8 8 4 2 8 9 9 8 8 7 6 6 9 4 2 1 2 5 4 5 5 5 6 7 5 4 3 3 10 13 16 15 14 13 13 13 13 13 13 12 12 13 13 10 8
17 15 14 18 19 17 13 21 21 21 19 15 15 13 12 12 13 12 11 10 9 7 8 6 5 5 6 7 7 7 5 4 7 8 8 7 5 6 6 8 7 4 6 2 11 1 4 5 4 5 5 6 5 5 4 5 5 5 7 5 6 13 14 14 15 15 15 14 13 13 13 12 8 7
17 17 14 15 21 17 14 20 21 22 21 16 14 13 12 12 14 12 11 11 9 7 9 9 9 9 8 8 8 7 7 7 8 9 8 7 7 6 8 8 6 6 2 6 3 2 4 4 5 3 5 7 6 5 6 5 5 6 6 6 7 5 8 12 14 17 18 16 15 14 14 12 9 7
16 17 17 13 19 20 17 20 21 22 21 17 13 13 12 12 11 11 10 10 12 8 8 8 8 7 8 7 7 7 7 8 9 9 8 7 7 7 7 6 6 5 1 8 4 1 3 4 5 5 5 6 7 7 5 6 6 7 5 5 7 7 7 8 8 7 7 14 16 16 15 13 11 9
16 17 16 15 17 24 20 21 21 22 21 20 11 13 12 7 11 10 9 11 10 9 9 9 8 8 7 8 8 8 8 9 8 8 8 8 7 5 6 4 3 3 2 6 3 1 4 4 4 5 5 6 7 7 8 7 7 5 6 7 7 7 7 8 7 6 7 7 6 5 4 10 13 16
17 16 15 15 20 24 22 21 22 22 24 19 12 14 11 12 12 10 11 10 11 11 10 9 9 8 9 10 10 10 9 8 8 9 8 6 6 5 1 2 2 3 2 1 3 2 3 4 3 5 5 6 7 8 8 8 7 6 8 7 7 7 7 7 7 7 7 7 7 9 11 14 16 17
16 15 17 15 22 23 22 22 22 22 21 14 17 13 16 14 12 9 10 10 11 11 10 9 9 9 9 8 9 8 6 9 8 5 4 5 7 5 4 4 4 3 3 3 3 4 4 4 4 4 5 5 7 8 9 8 8 8 8 8 8 8 6 6 7 7 7 7 8 9 9 10 8 7
17 18 16 17 22 22 22 22 20 18 20 20 17 17 18 15 10 11 11 11 11 11 11 11 10 9 6 5 7 8 10 6 7 7 6 7 6 5 4 4 4 4 4 4 5 5 4 4 4 4 4 5 7 8 8 9 9 9 8 9 9 7 8 7 6 6 7 8 9 9 9 10 10 10
15 14 15 21 21 21 18 14 11 9 11 16 17 18 17 12 12 12 12 11 11 12 12 11 10 9 8 8 7 5 5 6 9 8 8 7 7 6 6 6 6 6 6 5 5 4 4 4 4 4 5 6 7 8 8 9 9 9 9 9 9 9 7 6 7 7 7 8 9 9 10 10 11 11
13 9 14 13 15 13 18 16 14 13 14 12 11 10 12 11 11 11 9 11 12 11 11 11 11 9 8 7 7 7 8 8 8 8 8 8 7 7 6 6 6 6 5 5 5 4 4 3 3 4 5 6 7 8 8 8 10 9 9 8 8 8 7 7 7 7 7 8 9 10 10 10 11 11
11 8 10 15 11 12 12 11 8 9 9 10 11 12 12 11 10 10 11 10 10 9 10 11 10 8 7 9 9 10 10 9 9 9 8 7 7 6 6 6 7 6 4 5 5 5 5 5 5 4 5 6 7 8 8 9 9 9 9 8 8 8 7 8 8 8 8 9 10 10 10 11 11 11
7 7 9 10 12 12 14 12 11 11 10 11 13 14 12 10 8 9 9 10 9 9 9 8 8 8 9 9 10 10 10 9 9 8 8 7 6 5 5 7 6 5 5 4 4 4 5 4 4 5 6 7 8 9 9 9 9 8 8 7 7 8 8 7 7 8 9 9 10 11 11 11 11 11
9 11 11 11 13 15 13 13 13 13 13 14 13 13 12 10 10 9 9 10 9 9 10 9 10 10 10 10 11 10 10 9 8 8 8 7 6 6 7 8 7 6 5 4 4 4 3 3 3 5 7 8 9 10 10 9 9 8 7 7 7 8 7 8 8 9 9 9 11 12 12 11 10 11
14 12 13 12 13 14 14 14 15 15 15 14 15 15 11 8 10 12 10 9 8 8 9 9 11 11 11 11 11 11 10 10 9 8 7 7 7 7 8 8 7 5 5 5 4 3 3 3 4 5 6 7 8 9 15 13 8 7 6 7 7 8 8 8 9 8 10 10 10 11 13 12 12 10
16 15 15 14 14 15 15 16 16 15 15 16 15 12 11 11 9 12 13 12 10 10 10 10 10 11 11 11 11 10 10 10 9 9 8 8 8 8 8 7 6 5 5 5 5 4 3 3 4 5 6 7 7 8 4 18 15 5 6 7 7 8 8 8 8 9 10 10 9 11 12 13 13 12
17 18 19 19 18 18 19 18 16 15 15 16 15 13 12 11 9 8 9 11 10 10 10 10 11 11 11 11 10 10 10 10 8 9 8 8 8 9 8 7 6 6 6 6 4 4 4 4 4 4 6 6 8 7 6 5 17 16 6 7 8 8 9 9 9 9 9 9 11 11 12 13 14 13
16 19 21 21 20 19 18 17 17 16 15 15 16 14 12 11 10 8 7 7 7 9 10 11 11 11 11 10 10 10 9 10 9 8 8 9 9 8 7 7 6 7 6 5 4 4 4 4 4 5 5 6 7 7 7 6 5 6 13 8 9 9 9 9 9 10 10 10 11 11 11 13 14 13
19 20 19 19 19 19 17 16 17 16 16 15 14 14 13 11 11 11 10 8 8 10 11 11 11 11 11 11 10 10 10 10 9 9 9 9 8 7 7 7 6 6 6 6 5 5 5 5 5 5 5 6 6 6 7 8 9 9 6 16 9 9 8 8 10 10 11 12 11 11 12 12 15 17
21 23 20 16 14 14 13 12 12 11 10 10 11 12 13 12 11 10 10 8 8 10 10 11 11 11 10 10 10 9 9 10 9 8 9 7 8 8 7 6 7 6 6 6 5 5 5 5 6 5 4 4 6 7 8 9 10 10 11 12 19 13 8 8 9 10 11 11 12 13 13 13 13 11
12 9 9 14 13 13 13 13 13 12 11 11 11 10 10 10 11 10 11 11 12 11 10 10 10 10 10 10 10 10 10 9 9 9 7 7 7 7 7 6 6 6 7 7 5 5 5 3 5 6 3 6 7 7 8 9 9 8 7 7 6 17 17 12 7 8 11 12 12 13 13 13 13 12
5 12 16 14 14 14 15 15 13 13 11 9 9 9 9 9 9 12 11 11 12 10 9 10 9 9 9 9 10 10 10 8 8 8 8 8 8 7 6 6 7 8 8 6 6 4 2 2 3 5 6 7 6 7 8 8 9 8 8 8 8 9 15 14 14 13 10 9 12 13 12 12 11 13
11 19 16 15 14 14 13 13 13 12 12 10 9 9 9 9 9 10 9 9 9 9 8 8 8 8 9 10 10 9 8 8 8 8 8 8 8 8 8 8 9 8 6 5 3 3 3 4 5 6 6 6 6 6 8 8 8 9 9 9 8 8 7 11 16 15 14 15 15 13 11 11 11 14
8 10 14 14 13 13 13 13 12 11 12 11 10 9 9 9 9 9 8 9 9 8 8 8 9 10 9 7 7 7 8 8 8 8 7 8 8 8 8 8 7 6 5 4 4 5 4 4 4 5 6 6 5 6 7 8 8 8 9 9 9 9 9 8 6 7 12 15 18 19 19 18 17 17
8 9 9 10 12 12 12 12 12 10 10 11 11 10 9 9 8 8 8 8 8 8 8 9 8 8 7 8 8 8 8 7 7 7 7 7 7 7 7 6 6 7 6 5 5 5 5 5 5 5 6 6 6 6 7 7 8 9 9 9 9 8 8 8 9 11 11 11 9 8 13 15 16 19
Wind_Direction
199 202 203 208 219 219 207 215 218 212 220 221 222 222 226 219 259 248 221 220 248 195 208 232 174 212 218 228 233 223 230 199 159 228 232 226 235 171 190 195 200 210 209 228 235 242 245 246 251 254 257 258 260 262 264 269 273 279 284 286 288 284 281 274 269 269 271 272 270 271 270 271 273 274
208 203 199 200 207 211 207 210 217 204 206 215 219 221 221 226 232 238 254 247 218 216 201 254 184 165 201 216 231 230 233 127 189 230 236 230 228 149 185 186 197 205 217 228 235 235 236 242 247 259 270 271 263 254 258 264 267 278 283 285 285 286 284 281 275 275 273 271 270 268 267 269 271 272
205 207 206 198 208 204 209 215 209 207 202 213 216 222 223 219 223 235 234 248 216 238 240 220 263 166 180 237 217 209 228 155 204 219 212 233 117 156 175 192 198 211 213 225 232 230 233 243 253 264 279 283 281 283 284 286 286 284 283 280 281 285 288 289 290 286 280 277 275 272 272 269 267 268
203 204 206 204 205 204 209 211 213 205 205 210 214 216 218 220 223 223 233 237 245 193 239 243 197 244 220 200 235 218 218 152 204 217 210 159 138 194 201 189 206 206 215 223 229 232 236 244 253 257 261 263 265 268 270 271 275 278 279 279 281 284 285 287 289 291 290 285 279 274 273 273 272 271
205 203 205 207 207 208 210 211 210 208 203 208 215 214 215 221 216 220 221 232 233 236 226 242 256 226 229 207 214 222 213 188 198 224 216 194 208 213 230 191 190 198 207 216 219 223 224 226 233 239 240 244 249 248 247 251 258 266 271 275 280 280 279 281 283 282 283 282 281 280 276 274 273 273
206 201 205 208 209 209 215 215 213 211 208 205 210 210 214 218 220 211 223 224 240 243 202 223 239 240 201 247 202 222 223 212 195 210 218 214 218 231 226 240 184 187 194 202 209 216 216 215 219 224 226 231 232 230 232 242 257 269 274 279 279 278 279 279 274 271 269 271 273 275 278 278 277 276
203 203 205 209 209 210 214 217 219 216 215 213 214 214 212 219 221 213 214 227 231 236 239 224 221 216 211 228 210 211 227 236 222 217 222 219 221 226 241 241 253 168 180 191 205 215 213 212 212 211 215 221 220 224 229 239 252 253 264 265 266 264 263 264 264 265 265 264 264 266 268 271 272 273
204 205 205 210 209 210 213 214 216 219 216 215 216 218 219 217 223 223 212 220 236 240 247 228 230 223 213 208 232 215 219 231 227 229 231 231 232 227 221 228 248 160 169 187 208 216 219 221 220 224 233 230 231 231 238 250 254 259 256 259 258 254 252 251 253 258 263 267 269 269 269 269 269 269
207 206 208 207 207 208 211 212 216 216 214 214 215 217 216 218 218 223 220 218 223 234 242 245 225 234 228 223 217 215 220 224 229 222 233 229 229 227 236 237 179 129 174 191 211 216 220 220 217 223 218 223 229 230 237 241 253 255 257 259 260 263 265 263 255 253 258 263 265 268 267 268 270 272
208 210 209 208 206 206 208 212 213 214 214 212 216 217 217 216 217 219 220 220 221 228 237 240 242 217 231 223 221 216 220 234 230 229 225 231 231 228 227 232 229 212 187 202 192 211 223 215 219 212 212 219 224 226 226 234 242 246 248 253 261 269 273 275 277 276 270 262 260 262 265 264 265 265
209 210 210 210 209 208 209 212 213 210 211 212 214 216 216 217 218 217 220 218 222 226 230 232 236 241 225 228 232 219 221 236 247 248 238 230 221 224 227 229 230 232 226 211 221 263 321 52 206 198 210 213 224 227 229 236 242 247 245 253 265 270 272 275 282 286 287 288 286 280 276 274 272 269
212 211 212 213 211 210 210 212 212 210 209 208 213 211 212 215 216 221 219 220 223 224 227 232 233 225 235 223 232 236 219 228 234 235 248 254 244 231 217 231 231 226 243 269 237 198 219 215 224 209 208 217 224 224 230 233 243 241 241 248 256 260 267 275 282 285 286 288 290 290 289 287 285 280
212 213 214 216 216 209 210 206 210 210 206 207 207 209 208 211 214 216 221 220 222 224 228 230 226 233 228 228 229 223 221 225 233 238 233 246 250 250 239 220 220 238 253 259 266 262 255 256 231 219 223 224 214 223 226 244 235 221 219 233 242 255 260 268 274 279 282 284 285 286 287 288 286 282
210 212 215 215 214 206 198 201 203 208 203 207 215 207 205 207 209 212 216 220 219 224 230 229 228 226 227 227 225 231 229 230 235 242 240 242 243 244 249 253 245 215 229 252 253 255 236 248 254 260 263 274 267 288 256 0 63 120 202 227 240 245 257 264 267 269 273 274 274 274 275 277 280 282
209 210 213 220 201 199 194 198 198 202 207 202 212 222 214 209 209 209 213 219 219 223 228 230 233 232 233 231 228 228 234 234 236 237 239 242 237 240 243 250 225 173 238 228 258 261 259 265 269 269 271 276 286 289 22 100 93 130 202 233 245 253 258 260 260 263 264 267 267 269 269 271 273 275
209 209 210 211 212 205 207 206 198 203 206 206 209 212 213 212 217 227 228 227 225 229 234 236 235 236 233 234 233 236 237 235 239 236 238 229 232 237 239 238 252 137 209 262 268 270 263 251 253 258 260 270 278 282 103 113 130 211 224 238 245 250 252 255 259 262 264 264 267 267 267 264 263 265
209 208 208 209 207 203 187 200 207 205 205 207 211 212 215 219 217 224 234 249 254 244 235 238 241 236 239 239 239 240 245 242 238 228 229 229 227 235 241 247 234 244 201 232 260 271 281 277 271 268 277 289 280 258 137 130 168 212 245 248 244 242 248 256 262 264 263 264 266 266 265 264 261 260
211 208 205 205 202 201 187 199 204 205 205 200 204 211 215 219 218 220 225 227 233 244 249 245 242 238 236 243 246 247 240 226 227 227 235 231 227 226 236 235 232 229 226 239 270 276 272 272 282 286 290 279 270 270 143 170 180 215 247 261 262 256 254 255 259 261 263 265 265 266 267 267 264 259
216 211 208 206 204 198 195 193 195 201 201 198 197 203 210 215 216 215 217 219 223 224 230 237 244 248 246 246 247 246 230 221 232 255 257 227 224 239 249 238 228 234 217 218 222 271 287 290 279 275 281 277 272 293 160 182 171 197 228 245 255 254 256 258 257 259 262 263 264 264 265 267 267 263
223 224 215 207 206 201 202 182 179 193 197 200 201 205 210 210 213 216 213 209 208 217 221 226 231 238 241 255 254 223 200 203 233 215 195 207 229 233 239 241 241 236 204 193 231 252 274 281 279 284 285 285 287 291 297 165 189 190 215 233 242 252 260 267 268 261 255 256 259 261 263 262 262 265
224 224 224 220 206 202 205 171 174 183 193 201 212 217 211 210 209 216 182 135 152 136 88 75 71 77 98 111 107 123 162 245 244 224 233 233 214 221 240 232 247 258 221 170 217 299 305 281 272 280 279 294 294 289 278 260 177 196 210 223 236 247 255 261 269 272 264 255 253 256 258 258 259 262
226 226 220 221 219 205 201 162 175 177 185 202 211 210 212 208 207 208 159 158 118 97 99 106 118 119 127 133 146 154 164 154 212 220 234 234 220 223 236 254 261 269 317 331 271 178 260 283 281 278 286 284 272 275 290 302 275 198 206 219 234 242 243 249 257 263 268 266 261 255 251 253 255 257
227 225 211 202 217 218 188 163 173 176 184 200 210 206 208 210 206 208 170 161 161 174 197 185 167 151 147 158 173 168 168 179 217 227 236 243 236 244 255 258 269 281 261 70 101 173 260 285 287 296 293 291 301 295 290 288 283 297 307 285 238 217 228 240 244 247 252 259 262 257 252 250 232 264
220 222 219 193 201 207 177 167 172 178 183 194 205 208 206 208 208 203 194 186 172 171 197 192 194 201 186 195 208 189 178 199 211 217 215 224 236 257 249 262 265 260 312 129 190 220 288 290 286 305 308 303 301 303 290 292 305 307 304 290 287 277 245 237 235 236 244 249 248 249 251 248 225 266
217 217 219 212 187 194 175 171 174 177 183 192 196 204 208 210 204 196 188 148 148 178 188 181 177 187 184 198 200 198 192 192 194 200 221 228 236 246 260 251 230 224 166 96 124 253 289 303 299 298 293 290 286 291 308 305 297 296 293 296 299 295 296 296 301 292 233 220 228 236 242 241 221 230
216 214 209 220 177 184 174 175 173 175 181 190 198 202 207 168 154 189 162 152 166 187 182 183 184 184 187 194 194 188 190 193 192 198 207 223 243 225 237 247 266 254 143 119 16 269 272 268 292 308 301 291 294 301 303 299 295 295 308 300 293 295 296 300 303 300 300 312 301 226 246 220 226 222
211 211 205 199 168 180 176 174 173 175 182 184 194 186 153 146 148 168 180 161 171 188 184 185 188 186 193 192 197 192 195 194 188 195 212 187 207 215 193 110 227 243 290 132 162 221 231 272 288 282 293 298 298 297 292 299 308 311 295 299 305 302 296 307 306 305 307 303 292 283 265 244 233 232
216 212 208 195 164 173 175 175 176 176 176 180 181 153 156 150 150 172 177 158 176 188 180 183 190 192 199 200 203 206 192 210 172 198 187 168 190 185 186 170 221 234 229 241 238 218 223 255 275 271 275 292 295 297 301 300 296 303 303 305 308 300 303 304 299 299 298 297 304 303 308 306 295 270
225 220 208 159 160 170 176 177 174 172 174 174 159 159 155 156 170 180 189 172 180 187 183 187 190 192 191 200 198 196 201 202 124 170 164 170 181 176 198 198 220 215 220 234 226 221 225 242 269 289 283 282 284 287 291 293 297 297 306 309 295 307 309 292 287 306 309 303 300 301 304 305 297 293
226 210 167 158 162 163 168 166 169 164 170 165 155 157 159 174 179 181 181 168 176 186 184 185 186 187 181 191 198 150 146 153 171 166 170 171 183 190 193 206 219 224 231 223 232 227 215 229 241 260 282 279 278 285 284 290 292 296 296 290 298 296 284 303 311 301 299 306 307 307 304 302 295 293
231 172 162 159 158 151 163 166 156 152 151 151 158 162 175 184 181 180 171 172 181 183 183 180 186 185 176 168 143 156 180 179 173 172 171 185 185 200 225 238 250 246 227 201 225 228 216 234 263 269 274 281 282 278 284 285 284 287 288 291 295 295 305 303 299 305 316 312 312 304 299 293 292 288
195 158 142 134 131 136 149 155 146 148 153 157 159 168 179 187 180 170 173 174 183 183 184 183 174 166 161 156 172 184 185 181 175 177 182 193 214 221 202 222 251 246 226 199 212 188 194 236 246 249 257 270 275 278 280 277 278 279 282 284 286 289 297 302 311 315 321 321 307 300 295 293 292 293
181 144 143 148 145 150 153 151 150 151 157 162 172 173 175 180 164 160 178 180 179 178 184 174 169 150 150 163 179 185 182 183 177 177 183 191 207 206 224 243 259 248 244 228 208 203 214 229 225 243 258 263 264 269 275 279 273 274 280 285 291 294 302 301 309 314 319 310 302 301 298 294 292 286
180 175 166 156 158 161 162 159 159 159 163 165 172 177 175 171 165 160 169 177 177 180 184 176 163 156 166 171 183 184 183 178 182 176 185 188 193 200 219 238 239 232 225 243 242 242 222 222 252 254 256 252 250 247 246 255 268 274 277 292 294 298 300 308 308 313 312 309 307 300 298 298 295 292
185 165 164 163 164 168 172 167 162 160 166 168 169 171 170 170 163 164 167 174 177 175 185 178 172 171 175 178 182 185 183 178 187 179 183 204 195 207 229 237 232 228 227 229 231 218 228 234 243 266 263 264 260 244 214 221 253 264 280 282 304 302 305 306 309 310 311 304 299 298 299 295 295 297
182 167 162 163 171 174 175 176 169 166 164 165 163 155 161 172 176 174 174 176 168 174 184 179 173 169 180 180 183 186 186 188 194 173 179 210 216 224 230 231 239 232 232 231 228 222 228 260 278 283 291 295 293 293 276 190 215 261 280 296 299 303 302 305 306 307 303 302 303 301 299 298 299 299
185 175 173 175 180 181 178 173 169 169 165 160 155 153 160 164 165 178 178 165 170 177 180 173 176 174 178 182 181 190 187 185 204 189 191 213 220 226 228 223 219 228 235 231 222 220 212 239 240 264 279 286 295 296 307 153 211 231 298 302 303 301 304 304 303 298 300 305 306 301 298 301 297 297
187 183 180 180 179 181 176 168 164 163 165 161 154 150 153 153 152 159 148 173 187 178 174 174 179 175 179 183 185 188 189 191 207 203 204 212 218 221 221 229 217 207 214 208 206 209 215 232 240 255 259 274 291 291 300 308 316 227 212 242 292 296 295 296 297 305 306 304 302 303 301 297 296 295
185 185 184 182 180 169 170 168 164 161 159 157 151 149 147 145 149 158 167 175 181 182 177 184 177 176 179 185 190 188 195 205 199 208 214 215 213 219 218 217 221 214 218 212 206 205 206 221 234 241 256 270 278 297 307 305 287 304 248 200 251 279 285 295 302 302 307 307 303 304 297 289 285 279
189 183 181 175 162 155 147 140 133 132 135 139 142 147 149 149 150 157 162 163 178 189 186 182 172 173 188 188 191 200 203 209 206 209 216 215 204 210 215 218 217 213 208 220 213 210 210 225 222 238 255 281 295 292 295 285 286 277 273 241 209 228 262 293 293 303 304 305 307 303 302 302 299 305
178 168 146 144 140 137 133 126 129 129 135 141 139 137 138 141 151 164 167 174 188 188 184 178 173 179 188 192 192 206 206 208 204 208 206 206 212 202 210 205 209 214 225 214 211 213 225 217 84 84 279 272 264 266 258 262 267 283 289 310 189 206 225 228 264 295 296 302 304 303 302 304 307 305
168 155 144 138 136 135 132 131 130 125 126 129 128 136 139 145 148 145 156 173 184 183 176 173 178 185 188 197 204 211 222 203 191 199 201 205 202 191 170 191 224 220 215 218 205 212 156 131 196 217 234 234 247 250 266 277 288 292 302 297 296 205 201 223 232 230 249 283 301 301 296 300 306 305
173 148 133 124 125 124 123 126 124 123 127 127 130 135 139 143 143 146 154 162 174 174 174 171 177 185 199 201 208 209 207 188 195 197 201 202 207 194 195 209 220 215 210 216 211 211 221 212 222 231 235 251 249 256 271 281 287 290 286 292 304 318 293 212 211 227 239 243 243 252 271 283 299 302
18 67 93 105 107 112 119 117 116 121 123 126 134 141 141 140 144 150 156 163 165 172 175 184 192 202 208 205 195 188 202 195 194 199 200 202 207 206 206 199 201 212 216 213 213 214 212 226 229 238 253 252 255 264 276 284 285 291 302 298 296 295 296 319 317 235 234 233 237 238 245 245 248 258
41 59 77 96 112 115 115 118 122 126 130 131 137 136 137 140 146 154 160 163 164 171 177 192 188 184 178 179 185 189 199 196 198 192 199 197 200 205 215 214 200 207 219 216 220 220 220 225 229 242 250 249 252 265 273 275 281 290 284 286 296 302 311 325 317 311 309 311 304 254 224 233 239 248